UNR Ag. Experiment Farm, Sparks, Nevada Weather observations

Data are for 10 minute period ending at time listed.
 Day   Time   Solar   Ave.   Ave.  Ave.  Vector  Max.   Baro.   Total    
  of    of     Rad.   Air    Rel.  Wind   Wind   Wind  Press.  Precip.   
Year   Day            Temp.  Hum.  Speed  Dir.   Gust                    
2026   (PST)  Kw/m2    F      %     mph   deg.    mph    mb.     in.     
-------------------------------------------------------------------------
 122   14:40   0.35   70.6    26    5.2   225     9.0   863.2    0.00 
 122   14:50   0.31   70.5    26    7.0   218    13.6   863.1    0.00 
 122   15:00   0.33   70.0    27    7.4   227    11.6   863.0    0.00 
 122   15:10   0.33   70.2    28    4.3   224     7.6   862.9    0.00 
 122   15:20   0.19   70.1    27    4.8   200     7.7   862.9    0.00 
 122   15:30   0.07   69.1    30    5.2   167    12.7   862.9    0.00 
 122   15:40   0.07   67.4    32   15.3   126    21.3   863.1    0.00 
 122   15:50   0.08   65.4    37    8.5   105    15.2   863.2    0.00 
 122   16:00   0.05   66.7    30    8.7    90    12.9   863.1    0.00 
 122   16:10   0.05   66.9    29   10.8    89    16.3   863.1    0.00 
 122   16:20   0.02   66.3    31   11.4    86    16.8   863.2    0.00 
 122   16:30   0.01   65.0    37   13.9   110    22.9   863.8    0.00 
 122   16:40   0.01   60.6    51    9.4    95    18.5   864.3    0.00 
 122   16:50   0.05   59.2    59    6.0    79     8.7   864.3    0.00 
 122   17:00   0.10   60.3    53    5.7    99     8.9   864.3    0.00 
 122   17:10   0.12   59.4    61    5.6   337     8.9   864.2    0.00 
 122   17:20   0.14   59.3    59    8.5   326    14.0   864.2    0.00 
 122   17:30   0.12   59.4    57    9.0   325    14.5   864.2    0.00 
 122   17:40   0.09   58.7    58    7.8   343    10.8   864.1    0.00 
 122   17:50   0.07   58.5    58    7.1   345    10.8   864.1    0.00 
 122   18:00   0.05   57.6    62    5.9   353     8.7   864.2    0.00 
 122   18:10   0.01   56.8    65    4.3   346     6.0   864.1    0.00 
 122   18:20   0.01   56.7    63    4.5   322     7.1   864.1    0.00 
 122   18:30   0.01   57.1    60    5.2   331    10.1   864.2    0.00 
 122   18:40   0.00   57.2    59    6.3   340    10.3   864.5    0.00 
 122   18:50   0.00   56.8    61    5.3   340     7.2   864.6    0.00 
 122   19:00   0.00   56.7    61    3.0   354     6.5   864.8    0.00 
 122   19:10   0.00   56.7    62    2.3    97     4.3   865.0    0.00 
 122   19:20   0.00   55.9    68    4.8   135     5.9   865.4    0.00 
 122   19:30   0.00   55.9    67    4.3    96     6.5   865.6    0.00 
 122   19:40   0.00   54.6    75    4.4    65     6.8   865.5    0.00 
 122   19:50   0.00   53.2    81    4.8    44     6.0   865.3    0.00 
 122   20:00   0.00   52.7    82    6.2    42    12.1   865.2    0.01 
 122   20:10   0.00   54.0    75    4.9    31     8.9   865.1    0.00 
 122   20:20   0.00   53.2    79    4.9   324     7.5   865.1    0.00 
 122   20:30   0.00   52.6    84    5.2   246     7.0   865.2    0.00 
 122   20:40   0.00   53.8    78    4.1   274     6.8   865.4    0.00 
 122   20:50   0.00   53.8    76    3.8   282     5.7   865.5    0.00 
 122   21:00   0.00   53.3    81    2.0   115     4.7   865.6    0.00 
 122   21:10   0.00   53.2    83    4.6    96     6.5   865.5    0.00 
 122   21:20   0.00   53.2    84    3.1    98     4.0   865.4    0.00 
 122   21:30   0.00   52.7    85    1.5   155     2.3   865.4    0.00 
 122   21:40   0.00   52.2    86    1.7   195     2.9   865.3    0.00 
 122   21:50   0.00   51.5    87    3.9   263     5.0   865.1    0.00 
 122   22:00   0.00   51.8    86    1.9   228     4.2   865.2    0.00 
 122   22:10   0.00   52.0    88    0.6   124     1.1   865.2    0.00 
 122   22:20   0.00   51.4    90    1.8   111     2.4   865.2    0.00 
 122   22:30   0.00   51.2    91    2.7   181     3.5   865.0    0.00 
 122   22:40   0.00   50.7    91    2.4   217     4.2   865.0    0.00 
 122   22:50   0.00   51.0    90    1.9   264     3.3   865.0    0.00 
 122   23:00   0.00   51.8    89    1.9   208     4.0   864.9    0.00 
 122   23:10   0.00   51.9    88    1.9   203     4.2   865.1    0.00 
 122   23:20   0.00   51.6    88    4.5   359     8.5   864.9    0.00 
 122   23:30   0.00   51.1    90    3.1    87     5.0   865.1    0.00 
 122   23:40   0.00   51.0    91    2.5    90     4.3   865.3    0.00 
 122   23:50   0.00   51.0    89    2.0    54     3.0   865.4    0.00 
 123    0:00   0.00   49.5    91    1.6   282     2.2   865.4    0.00 
 123    0:10   0.00   49.7    92    3.3   335     5.0   865.3    0.00 
 123    0:20   0.00   50.7    90    4.7   326     7.1   865.1    0.00 
 123    0:30   0.00   51.8    89    5.5     5     7.5   864.6    0.00 
 123    0:40   0.00   52.8    83    3.8   274     8.7   864.8    0.00 
 123    0:50   0.00   52.8    85    5.4   254     9.2   864.7    0.00 
 123    1:00   0.00   53.6    81    1.5   256     2.5   864.6    0.00 
 123    1:10   0.00   52.9    84    1.7   130     3.6   864.6    0.00 
 123    1:20   0.00   52.2    88    2.2   157     3.9   864.5    0.00 
 123    1:30   0.00   51.4    90    2.8   133     4.2   864.5    0.00 
 123    1:40   0.00   51.2    90    2.9    67     4.1   864.3    0.00 
 123    1:50   0.00   50.4    91    2.3   249     5.0   864.3    0.00 
 123    2:00   0.00   50.1    93    1.7   260     4.5   864.3    0.00 
 123    2:10   0.00   50.6    92    2.7   231     3.5   864.2    0.00 
 123    2:20   0.00   50.8    90    2.3   234     4.3   864.1    0.00 
 123    2:30   0.00   51.2    83    2.2   264     4.1   864.0    0.00 
 123    2:40   0.00   52.2    77    0.9   319     1.5   864.0    0.00 
 123    2:50   0.00   51.3    80    0.7   349     2.2   864.0    0.00 
 123    3:00   0.00   49.7    84    0.8    51     1.9   864.1    0.00 
 123    3:10   0.00   49.0    86    1.0   290     1.6   864.1    0.00 
 123    3:20   0.00   48.7    87    2.0   157     3.7   864.0    0.00 
 123    3:30   0.00   47.6    92    3.6   144     4.5   863.8    0.00 
 123    3:40   0.00   47.2    94    3.4   148     4.9   863.7    0.00 
 123    3:50   0.00   47.0    94    2.5   169     3.6   863.5    0.00 
 123    4:00   0.00   46.4    95    2.2   202     2.8   863.4    0.00 
 123    4:10   0.00   46.6    95    2.4   243     3.2   863.3    0.00 
 123    4:20   0.00   47.1    95    1.5   206     2.7   863.4    0.00 
 123    4:30   0.00   47.3    95    2.2   177     4.0   863.4    0.00 
 123    4:40   0.00   46.7    93    1.9    35     3.7   863.4    0.00 
 123    4:50   0.00   45.1    96    3.1   356     3.5   863.3    0.00 
 123    5:00   0.00   46.8    97    3.2   332     3.6   863.3    0.00 
 123    5:10   0.00   47.6    95    3.4   276     4.3   863.3    0.00 
 123    5:20   0.01   48.2    94    2.7   278     3.4   863.4    0.00 
 123    5:30   0.02   47.4    92    1.3    82     2.9   863.5    0.00 
 123    5:40   0.03   45.3    94    2.5    82     3.8   863.5    0.00 
 123    5:50   0.05   46.0    96    1.4   148     2.7   863.5    0.00 
 123    6:00   0.07   46.9    96    2.6   143     3.3   863.5    0.00 
 123    6:10   0.08   48.1    96    2.2   132     2.9   863.5    0.00 
 123    6:20   0.12   48.7    96    2.0   154     2.9   863.5    0.00 
 123    6:30   0.17   49.6    95    1.8   148     2.8   863.5    0.00 
 123    6:40   0.23   51.3    91    1.5   112     2.8   863.5    0.00 
 123    6:50   0.23   53.0    84    1.5    82     2.6   863.5    0.00 
 123    7:00   0.26   53.9    80    1.7    67     3.0   863.5    0.00 
 123    7:10   0.32   55.0    76    1.3    49     3.4   863.5    0.00 
 123    7:20   0.32   56.0    72    1.0    47     2.6   863.5    0.00 
 123    7:30   0.33   56.5    70    0.8   352     2.5   863.5    0.00 
 123    7:40   0.38   56.2    70    0.6   315     2.6   863.5    0.00 
 123    7:50   0.42   57.2    68    0.5   270     1.9   863.4    0.00 
 123    8:00   0.40   57.8    67    1.2   302     2.9   863.4    0.00 
 123    8:10   0.36   57.7    63    0.4   279     2.0   863.4    0.00 
 123    8:20   0.45   58.7    62    0.8   334     2.8   863.4    0.00 
 123    8:30   0.41   59.0    63    1.3   312     2.5   863.4    0.00 
 123    8:40   0.47   59.4    63    1.4     3     3.7   863.3    0.00 
 123    8:50   0.44   59.1    63    1.6   354     2.8   863.2    0.00 
 123    9:00   0.63   60.5    59    1.1     2     2.7   863.1    0.00 
 123    9:10   0.42   61.5    55    1.1    24     2.9   863.1    0.00 
 123    9:20   0.38   61.3    53    0.9   343     2.5   863.0    0.00 
 123    9:30   0.45   61.3    52    1.2   332     3.4   862.9    0.00 
 123    9:40   0.58   62.6    52    1.5    34     3.3   862.9    0.00 
 123    9:50   0.65   63.8    50    2.2    41     4.7   862.9    0.00 
 123   10:00   0.98   64.7    48    2.7   346     4.4   862.8    0.00 
 123   10:10   0.74   65.7    40    2.6   356     5.1   862.7    0.00 
 123   10:20   0.70   65.2    38    2.6   357     5.2   862.5    0.00 
 123   10:30   0.85   65.9    38    3.8   344     7.2   862.5    0.00 
 123   10:40   0.87   66.8    36    2.8   309     7.5   862.3    0.00 
 123   10:50   0.83   67.1    35    3.4    23     6.8   862.1    0.00 
 123   11:00   0.98   68.1    34    3.0   298     6.4   862.1    0.00 
 123   11:10   0.75   68.4    36    4.3     7     9.0   861.9    0.00 
 123   11:20   0.69   68.2    34    4.0   351     6.8   861.7    0.00 
 123   11:30   0.63   68.2    33    2.9   304     7.6   861.5    0.00 
 123   11:40   0.52   68.6    30    3.7   298     7.2   861.3    0.00 
 123   11:50   0.56   69.0    30    3.0   283     6.1   861.1    0.00 
 123   12:00   0.74   69.8    31    3.8   359     8.9   860.9    0.00 
 123   12:10   0.86   70.9    27    6.9    17    12.1   860.7    0.00 
 123   12:20   0.69   71.3    22    6.5    42    12.3   860.6    0.00 
 123   12:30   0.59   71.1    23    5.9    24    11.4   860.3    0.00 
 123   12:40   0.49   71.0    22    6.2    48    11.3   860.1    0.00 
 123   12:50   0.54   71.4    23    6.7    25    10.9   860.0    0.00 
 123   13:00   0.59   71.5    22    5.3   351     8.8   859.9    0.00 
 123   13:10   0.72   72.3    20    4.1    34     9.4   859.8    0.00 
 123   13:20   0.72   73.1    18    7.1    80    13.7   859.7    0.00 
 123   13:30   0.53   72.7    22    6.5   144    13.7   859.5    0.00 
 123   13:40   0.46   72.8    20    9.3    88    14.8   859.5    0.00 
 123   13:50   0.58   72.3    22   10.9   146    30.6   859.8    0.00 
 123   14:00   0.46   62.2    42   28.7   168    40.8   860.5    0.00 
 123   14:10   0.28   58.5    50   28.2   165    40.0   861.0    0.00 
 123   14:20   0.09   56.3    57   25.3   158    33.8   861.9    0.00 
 123   14:30   0.03   54.5    61   22.6   152    35.5   862.8    0.00 

Return to Sparks, Nevada, UNR Ag Experiment Farm graphs page.


Western Regional Climate Center,wrcc@dri.edu